�������l�o���
Date,Time,MP-1(��Sv/h),MP-2(��Sv/h),MP-3(��Sv/h),MP-4(��Sv/h),MP-5(��Sv/h),MP-6(��Sv/h),MP-7(��Sv/h),MP-8(��Sv/h),����,����(m/s),���J
2018/02/28,00:00,0.888,1.492,0.929,1.748,1.209,0.486,0.868,0.836,��,7.5,��
2018/02/28,00:10,0.888,1.491,0.931,1.746,1.208,0.487,0.865,0.835,��쐼,7.3,��
2018/02/28,00:20,0.889,1.494,0.931,1.747,1.210,0.487,0.868,0.835,��쐼,8.0,��
2018/02/28,00:30,0.889,1.491,0.930,1.749,1.210,0.485,0.868,0.837,��쐼,8.8,��
2018/02/28,00:40,0.888,1.491,0.930,1.752,1.206,0.487,0.868,0.836,��쐼,7.6,��
2018/02/28,00:50,0.886,1.493,0.932,1.750,1.210,0.487,0.868,0.836,��쐼,6.7,��
2018/02/28,01:00,0.886,1.492,0.930,1.750,1.208,0.487,0.868,0.837,��쐼,4.4,��
2018/02/28,01:10,0.890,1.491,0.929,1.748,1.210,0.487,0.869,0.836,��쐼,2.9,��
2018/02/28,01:20,0.887,1.492,0.931,1.750,1.207,0.487,0.869,0.836,�쐼,2.0,��
2018/02/28,01:30,0.889,1.491,0.933,1.748,1.207,0.488,0.869,0.836,��쐼,2.5,��
2018/02/28,01:40,0.886,1.493,0.930,1.749,1.208,0.489,0.867,0.837,�쐼,3.1,��
2018/02/28,01:50,0.889,1.492,0.931,1.748,1.206,0.487,0.868,0.836,���쐼,4.0,��
2018/02/28,02:00,0.886,1.491,0.931,1.746,1.205,0.487,0.867,0.837,���쐼,3.1,��
2018/02/28,02:10,0.888,1.491,0.930,1.750,1.206,0.488,0.869,0.836,��,3.6,��
2018/02/28,02:20,0.888,1.494,0.931,1.747,1.205,0.486,0.868,0.837,���k��,3.1,��
2018/02/28,02:30,0.887,1.493,0.930,1.750,1.206,0.487,0.867,0.835,���k��,2.8,��
2018/02/28,02:40,0.890,1.491,0.931,1.747,1.208,0.488,0.868,0.837,���k��,4.5,��
2018/02/28,02:50,0.888,1.493,0.931,1.747,1.209,0.487,0.869,0.834,�k��,3.7,��
2018/02/28,03:00,0.887,1.491,0.932,1.746,1.209,0.486,0.866,0.836,��,2.9,��
2018/02/28,03:10,0.888,1.494,0.930,1.747,1.206,0.488,0.865,0.835,��,1.4,��
2018/02/28,03:20,0.888,1.492,0.930,1.746,1.204,0.486,0.868,0.837,-,CALM,��
2018/02/28,03:30,0.888,1.491,0.929,1.746,1.208,0.487,0.867,0.836,�쐼,0.9,��
2018/02/28,03:40,0.888,1.489,0.931,1.748,1.207,0.487,0.868,0.836,�k�k��,0.6,��
2018/02/28,03:50,0.889,1.489,0.931,1.748,1.207,0.488,0.867,0.835,�k�k��,1.2,��
2018/02/28,04:00,0.885,1.492,0.929,1.747,1.204,0.487,0.866,0.837,�k��,2.0,��
2018/02/28,04:10,0.887,1.491,0.930,1.745,1.204,0.485,0.868,0.836,���k��,2.2,��
2018/02/28,04:20,0.886,1.492,0.929,1.747,1.206,0.485,0.866,0.836,�k��,1.7,��
2018/02/28,04:30,0.884,1.491,0.928,1.748,1.206,0.485,0.868,0.836,�k�k��,2.2,��
2018/02/28,04:40,0.886,1.490,0.928,1.748,1.206,0.485,0.867,0.836,�k�k��,3.5,��
2018/02/28,04:50,0.887,1.492,0.928,1.745,1.206,0.487,0.867,0.836,�k�k��,3.5,��
2018/02/28,05:00,0.887,1.491,0.929,1.747,1.208,0.485,0.866,0.836,�k�k��,3.0,��
2018/02/28,05:10,0.883,1.490,0.929,1.744,1.207,0.487,0.868,0.835,�k�k��,2.0,��
2018/02/28,05:20,0.886,1.491,0.927,1.746,1.206,0.486,0.865,0.835,�k�k��,1.7,��
2018/02/28,05:30,0.886,1.492,0.928,1.746,1.205,0.486,0.865,0.835,�k��,1.7,��
2018/02/28,05:40,0.886,1.485,0.929,1.745,1.205,0.486,0.867,0.834,�k��,1.5,��
2018/02/28,05:50,0.884,1.492,0.929,1.746,1.206,0.486,0.866,0.834,�k�k��,1.2,��
2018/02/28,06:00,0.885,1.486,0.928,1.744,1.203,0.486,0.867,0.835,�k,1.5,��
2018/02/28,06:10,0.885,1.487,0.928,1.747,1.205,0.484,0.868,0.836,�k�k��,1.9,��
2018/02/28,06:20,0.887,1.487,0.929,1.746,1.205,0.487,0.866,0.835,�k,2.0,��
2018/02/28,06:30,0.885,1.490,0.930,1.743,1.206,0.486,0.867,0.837,�k,1.1,��
2018/02/28,06:40,0.886,1.486,0.929,1.746,1.208,0.485,0.868,0.836,�k��,1.5,��
2018/02/28,06:50,0.885,1.490,0.929,1.745,1.206,0.486,0.868,0.836,�쐼,2.0,��
2018/02/28,07:00,0.886,1.487,0.928,1.745,1.206,0.486,0.866,0.836,��쐼,1.5,��
2018/02/28,07:10,0.885,1.492,0.927,1.746,1.204,0.486,0.867,0.835,��,2.3,��
2018/02/28,07:20,0.886,1.490,0.929,1.748,1.204,0.487,0.866,0.835,��쓌,3.0,��
2018/02/28,07:30,0.886,1.489,0.930,1.746,1.206,0.486,0.867,0.836,��쓌,2.8,�L
2018/02/28,07:40,0.886,1.491,0.930,1.748,1.204,0.487,0.868,0.835,�쓌,2.8,�L
2018/02/28,07:50,0.887,1.491,0.928,1.747,1.204,0.484,0.867,0.836,�k,1.2,�L
2018/02/28,08:00,0.886,1.486,0.930,1.747,1.204,0.487,0.869,0.837,�k,1.7,��
2018/02/28,08:10,0.887,1.492,0.929,1.748,1.206,0.486,0.868,0.836,��,0.8,��
2018/02/28,08:20,0.889,1.488,0.931,1.749,1.209,0.485,0.869,0.837,�k,1.7,��
2018/02/28,08:30,0.888,1.493,0.930,1.748,1.206,0.487,0.870,0.835,�k�k��,1.7,��
2018/02/28,08:40,0.891,1.494,0.930,1.748,1.205,0.487,0.869,0.835,�k�k��,1.7,��
2018/02/28,08:50,0.888,1.494,0.927,1.749,1.207,0.487,0.869,0.837,�k��,2.3,��
2018/02/28,09:00,0.888,1.493,0.931,1.750,1.207,0.486,0.870,0.837,�k��,2.9,��
2018/02/28,09:10,0.888,1.497,0.932,1.752,1.212,0.487,0.867,0.837,���k��,3.5,��
2018/02/28,09:20,0.888,1.495,0.931,1.750,1.210,0.486,0.868,0.839,�k��,3.5,��
2018/02/28,09:30,0.889,1.492,0.930,1.750,1.209,0.486,0.868,0.836,�k�k��,5.5,��
2018/02/28,09:40,0.889,1.494,0.929,1.751,1.210,0.487,0.867,0.836,�k�k��,5.4,��
2018/02/28,09:50,0.889,1.487,0.928,1.749,1.211,0.487,0.866,0.838,�k��,6.7,��
2018/02/28,10:00,0.888,1.489,0.929,1.748,1.208,0.487,0.867,0.837,�k�k��,7.0,��
2018/02/28,10:10,0.890,1.491,0.930,1.748,1.211,0.484,0.867,0.837,�k��,7.8,��
2018/02/28,10:20,0.887,1.489,0.925,1.748,1.209,0.484,0.868,0.838,�k��,6.5,��
2018/02/28,10:30,0.889,1.487,0.929,1.750,1.208,0.485,0.868,0.838,�k�k��,6.2,��
2018/02/28,10:40,0.890,1.483,0.931,1.750,1.210,0.486,0.866,0.838,�k�k��,7.1,��
2018/02/28,10:50,0.890,1.473,0.927,1.749,1.210,0.486,0.866,0.836,�k�k��,6.6,��
2018/02/28,11:00,0.889,1.482,0.927,1.752,1.209,0.487,0.865,0.835,�k�k��,6.0,��
2018/02/28,11:10,0.891,1.490,0.930,1.749,1.207,0.486,0.866,0.835,�k�k��,5.7,��
2018/02/28,11:20,0.892,1.492,0.931,1.750,1.212,0.485,0.865,0.837,�k��,5.7,��
2018/02/28,11:30,0.891,1.493,0.932,1.750,1.214,0.487,0.867,0.837,�k�k��,5.6,��
2018/02/28,11:40,0.892,1.496,0.931,1.749,1.210,0.486,0.867,0.838,�k�k��,4.8,��
2018/02/28,11:50,0.890,1.494,0.930,1.754,1.212,0.485,0.865,0.837,�k��,3.9,��
2018/02/28,12:00,0.889,1.496,0.930,1.750,1.213,0.485,0.867,0.839,�k�k��,4.0,��
2018/02/28,12:10,0.888,1.496,0.932,1.751,1.210,0.486,0.866,0.839,�k�k��,3.9,��
2018/02/28,12:20,0.891,1.499,0.931,1.752,1.213,0.487,0.867,0.838,�k�k��,4.4,��
2018/02/28,12:30,0.891,1.499,0.933,1.753,1.209,0.486,0.865,0.838,�k�k��,4.6,��
2018/02/28,12:40,0.890,1.498,0.930,1.751,1.211,0.488,0.867,0.839,�k,4.8,��
2018/02/28,12:50,0.890,1.495,0.930,1.753,1.214,0.486,0.868,0.837,�k��,3.9,��
2018/02/28,13:00,0.890,1.495,0.932,1.751,1.210,0.486,0.868,0.837,�k�k��,3.4,��
2018/02/28,13:10,0.892,1.496,0.932,1.751,1.213,0.487,0.866,0.838,�k�k��,3.1,��
2018/02/28,13:20,0.890,1.496,0.930,1.753,1.213,0.487,0.867,0.837,�k��,3.0,��
2018/02/28,13:30,0.891,1.497,0.932,1.753,1.213,0.485,0.868,0.837,�k��,3.3,��
2018/02/28,13:40,0.893,1.497,0.931,1.752,1.213,0.487,0.868,0.839,�k��,3.2,��
2018/02/28,13:50,0.890,1.500,0.932,1.750,1.212,0.486,0.867,0.835,�k��,3.3,��
2018/02/28,14:00,0.890,1.495,0.931,1.753,1.211,0.486,0.868,0.838,�k��,3.1,��
2018/02/28,14:10,0.890,1.493,0.931,1.751,1.212,0.486,0.867,0.838,�k��,3.8,��
2018/02/28,14:20,0.889,1.496,0.931,1.754,1.215,0.487,0.867,0.838,�k��,3.1,��
2018/02/28,14:30,0.891,1.493,0.933,1.754,1.210,0.486,0.866,0.837,�k��,2.3,��
2018/02/28,14:40,0.892,1.494,0.932,1.751,1.214,0.486,0.866,0.837,�k��,2.5,��
2018/02/28,14:50,0.886,1.496,0.932,1.753,1.212,0.488,0.868,0.840,�k��,2.6,��
2018/02/28,15:00,0.886,1.496,0.935,1.750,1.212,0.487,0.867,0.838,�k��,2.8,��
2018/02/28,15:10,0.885,1.499,0.934,1.752,1.212,0.486,0.868,0.836,���k��,2.3,��
2018/02/28,15:20,0.884,1.499,0.931,1.750,1.213,0.488,0.868,0.839,���k��,2.0,��
2018/02/28,15:30,0.885,1.502,0.933,1.752,1.213,0.487,0.867,0.837,��,2.0,��
2018/02/28,15:40,0.884,1.499,0.933,1.753,1.211,0.488,0.867,0.839,���k��,1.5,��
2018/02/28,15:50,0.885,1.498,0.933,1.753,1.210,0.486,0.869,0.836,���k��,1.7,��
2018/02/28,16:00,0.884,1.498,0.933,1.753,1.212,0.486,0.868,0.838,�k��,1.7,��
2018/02/28,16:10,0.884,1.498,0.934,1.751,1.215,0.487,0.867,0.838,���k��,1.7,��
2018/02/28,16:20,0.885,1.496,0.932,1.752,1.213,0.487,0.869,0.836,���쓌,1.7,��
2018/02/28,16:30,0.882,1.497,0.934,1.750,1.215,0.489,0.869,0.837,�쓌,1.5,��
2018/02/28,16:40,0.882,1.497,0.935,1.752,1.212,0.487,0.869,0.836,�쓌,1.9,��
2018/02/28,16:50,0.884,1.499,0.934,1.751,1.215,0.486,0.870,0.837,���쓌,1.7,��
2018/02/28,17:00,0.886,1.498,0.933,1.754,1.214,0.488,0.869,0.838,�쓌,1.7,��
2018/02/28,17:10,0.883,1.499,0.932,1.751,1.211,0.489,0.870,0.838,�쓌,2.0,��
2018/02/28,17:20,0.881,1.497,0.932,1.748,1.213,0.488,0.870,0.836,��,1.7,��
2018/02/28,17:30,0.879,1.498,0.934,1.750,1.213,0.488,0.871,0.837,���쓌,2.5,��
2018/02/28,17:40,0.885,1.500,0.933,1.750,1.211,0.488,0.869,0.837,���쓌,2.6,��
2018/02/28,17:50,0.892,1.496,0.932,1.750,1.215,0.487,0.869,0.835,�쓌,3.0,��
2018/02/28,18:00,0.890,1.500,0.934,1.751,1.212,0.486,0.870,0.838,���쓌,2.3,��
2018/02/28,18:10,0.892,1.497,0.932,1.752,1.211,0.488,0.870,0.837,�쓌,2.2,��
2018/02/28,18:20,0.893,1.498,0.931,1.751,1.211,0.488,0.870,0.837,�쓌,2.3,��
2018/02/28,18:30,0.892,1.501,0.932,1.752,1.213,0.489,0.869,0.837,�쓌,2.6,��
2018/02/28,18:40,0.891,1.498,0.935,1.753,1.212,0.489,0.869,0.838,�쓌,2.6,��
2018/02/28,18:50,0.892,1.497,0.932,1.751,1.211,0.488,0.869,0.836,��쓌,2.6,��
2018/02/28,19:00,0.891,1.499,0.931,1.751,1.214,0.489,0.868,0.838,��쓌,2.6,��
2018/02/28,19:10,0.892,1.499,0.933,1.753,1.212,0.487,0.870,0.836,��쓌,2.6,��
2018/02/28,19:20,0.892,1.498,0.933,1.751,1.211,0.487,0.869,0.836,��쓌,3.4,��
2018/02/28,19:30,0.891,1.499,0.931,1.753,1.211,0.488,0.869,0.836,��쓌,3.7,��
2018/02/28,19:40,0.889,1.498,0.934,1.750,1.211,0.488,0.869,0.837,��쓌,3.6,��
2018/02/28,19:50,0.892,1.496,0.932,1.751,1.212,0.488,0.870,0.837,�쓌,3.0,��
2018/02/28,20:00,0.891,1.497,0.932,1.752,1.213,0.487,0.869,0.836,��쓌,3.9,��
2018/02/28,20:10,0.891,1.494,0.933,1.754,1.212,0.489,0.870,0.837,��쓌,2.6,��
2018/02/28,20:20,0.891,1.497,0.935,1.751,1.212,0.488,0.871,0.837,��쓌,3.5,��
2018/02/28,20:30,0.892,1.497,0.933,1.752,1.212,0.489,0.870,0.838,��쓌,3.5,��
2018/02/28,20:40,0.892,1.498,0.933,1.754,1.212,0.488,0.868,0.835,��쓌,3.5,��
2018/02/28,20:50,0.891,1.498,0.933,1.751,1.212,0.487,0.870,0.838,��쓌,3.5,��
2018/02/28,21:00,0.890,1.496,0.934,1.753,1.210,0.488,0.871,0.835,��쓌,3.8,��
2018/02/28,21:10,0.891,1.498,0.932,1.752,1.210,0.488,0.870,0.838,��,3.6,��
2018/02/28,21:20,0.891,1.500,0.934,1.753,1.213,0.489,0.869,0.837,��쓌,3.6,��
2018/02/28,21:30,0.889,1.496,0.932,1.753,1.210,0.489,0.870,0.836,��쓌,3.3,��
2018/02/28,21:40,0.892,1.497,0.932,1.750,1.211,0.488,0.871,0.838,��쓌,3.8,��
2018/02/28,21:50,0.891,1.497,0.933,1.753,1.211,0.487,0.869,0.836,��,3.6,��
2018/02/28,22:00,0.892,1.497,0.932,1.750,1.212,0.488,0.870,0.838,��,3.4,��
2018/02/28,22:10,0.889,1.496,0.935,1.753,1.210,0.489,0.870,0.836,��,3.2,��
2018/02/28,22:20,0.890,1.496,0.932,1.751,1.211,0.488,0.870,0.838,��,3.1,��
2018/02/28,22:30,0.892,1.497,0.933,1.753,1.211,0.487,0.871,0.837,��쐼,4.1,��
2018/02/28,22:40,0.893,1.498,0.933,1.749,1.212,0.489,0.871,0.837,��쐼,3.8,�L
2018/02/28,22:50,0.890,1.497,0.934,1.751,1.212,0.489,0.870,0.837,��쐼,3.7,�L
2018/02/28,23:00,0.892,1.497,0.934,1.752,1.213,0.489,0.870,0.837,��쐼,3.5,��
2018/02/28,23:10,0.891,1.496,0.932,1.752,1.211,0.488,0.870,0.836,��,3.7,��
2018/02/28,23:20,0.891,1.497,0.932,1.752,1.212,0.489,0.870,0.838,��,4.6,��
2018/02/28,23:30,0.892,1.498,0.932,1.754,1.212,0.488,0.871,0.838,��,4.9,��
2018/02/28,23:40,0.893,1.499,0.934,1.753,1.214,0.488,0.870,0.839,��,5.0,��
2018/02/28,23:50,0.893,1.497,0.932,1.752,1.213,0.489,0.871,0.838,��쓌,4.5,��
